Greybull, WY

12:31 PM MDT on August 18, 2017 (GMT -0600)
South Big Horn County

Weather History for KGEY - February, 2012

Change the Weather History Date:

Sunday, February 19, 2012

  Actual Average Record
Temperature  
Mean Temperature 28 °F 25 °F  
Max Temperature 35 °F 38 °F 60 °F (2016)
Min Temperature 21 °F 13 °F -7 °F (2006)
Degree Days  
Heating Degree Days 37 40  
Month to date heating degree days 825  
Since 1 July heating degree days 5639  
Cooling Degree Days 0 0  
Month to date cooling degree days 0  
Year to date cooling degree days 0  
Moisture  
Dew Point 23 °F    
Average Humidity 76    
Maximum Humidity 92    
Minimum Humidity 59    
Precipitation  
Precipitation 0.00 in 0.00 in 0.04 in (2005)
Month to date precipitation 0.11  
Year to date precipitation 0.34  
Sea Level Pressure  
Sea Level Pressure 29.86 in    
Wind  
Wind Speed 6 mph (ESE)    
Max Wind Speed 14 mph    
Max Gust Speed -    
Visibility 10 miles    
Events      
T = Trace of Precipitation, MM = Missing Value Source: NWS Daily Summary

Daily Weather History Graph

Daily Weather History Graph

Search for Another Location

Airport or City:

Trip Planner

Search our weather history database for the weather conditions in past years. The results will help you decide how hot, cold, wet, or windy it might be!

Date:

Astronomy

Feb. 19, 2012 Rise Set
Actual Time 7:06 AM MST 5:46 PM MST
Civil Twilight 6:37 AM MST 6:15 PM MST
Nautical Twilight 6:03 AM MST 6:49 PM MST
Astronomical Twilight 5:29 AM MST 7:23 PM MST
Moon 5:33 AM MST (2/19) 3:47 PM MST (2/19)
Length of Visible Light 11h 38m
Length of Day
10h 39m
Waning Crescent, 5% of the Moon is Illuminated
Feb 19
Waning Crescent
Feb 21
New
Feb 29
First Quarter
Mar 8
Full
Mar 14
Last Quarter

Hourly Weather History & Observations

Time (MST) Temp. Windchill Dew Point Humidity Pressure Visibility Wind Dir Wind Speed Gust Speed Precip Events Conditions
12:53 AM 28.9 °F 20.4 °F 23.0 °F 78% 29.86 in 10.0 mi WNW 9.2 mph - N/A   Mostly Cloudy
1:53 AM 30.0 °F 19.5 °F 23.0 °F 75% 29.84 in 10.0 mi WNW 13.8 mph - N/A   Mostly Cloudy
2:53 AM 30.9 °F 21.7 °F 23.0 °F 72% 29.83 in 10.0 mi WNW 11.5 mph - N/A   Overcast
3:53 AM 30.9 °F - 21.9 °F 69% 29.81 in 10.0 mi Calm Calm - N/A   Overcast
4:53 AM 30.9 °F 22.8 °F 21.9 °F 69% 29.83 in 10.0 mi WNW 9.2 mph - N/A   Mostly Cloudy
5:53 AM 30.9 °F 26.2 °F 21.9 °F 69% 29.84 in 10.0 mi WNW 4.6 mph - N/A   Overcast
6:53 AM 28.0 °F 21.7 °F 21.9 °F 78% 29.88 in 10.0 mi East 5.8 mph - N/A   Overcast
7:53 AM 27.0 °F 19.5 °F 21.9 °F 81% 29.88 in 10.0 mi South 6.9 mph - N/A   Overcast
8:53 AM 28.9 °F 22.8 °F 21.9 °F 75% 29.88 in 10.0 mi SE 5.8 mph - N/A   Overcast
9:53 AM 30.0 °F 23.2 °F 21.9 °F 72% 29.88 in 10.0 mi SSE 6.9 mph - N/A   Overcast
10:53 AM 32.0 °F 26.4 °F 23.0 °F 69% 29.87 in 10.0 mi ESE 5.8 mph - N/A   Overcast
11:53 AM 30.9 °F 25.2 °F 25.0 °F 79% 29.88 in 10.0 mi East 5.8 mph - N/A   Overcast
12:53 PM 32.0 °F 26.4 °F 26.1 °F 79% 29.84 in 10.0 mi East 5.8 mph - N/A   Overcast
1:53 PM 33.1 °F - 25.0 °F 72% 29.82 in 10.0 mi Calm Calm - N/A   Overcast
2:53 PM 34.0 °F - 24.1 °F 67% 29.81 in 10.0 mi Calm Calm - N/A   Overcast
3:53 PM 35.1 °F - 21.9 °F 59% 29.81 in 10.0 mi Calm Calm - N/A   Overcast
4:53 PM 34.0 °F 28.8 °F 24.1 °F 67% 29.81 in 10.0 mi ESE 5.8 mph - N/A   Overcast
5:53 PM 32.0 °F 28.7 °F 25.0 °F 75% 29.83 in 10.0 mi ESE 3.5 mph - N/A   Mostly Cloudy
6:53 PM 30.0 °F - 24.1 °F 79% 29.86 in 10.0 mi Calm Calm - N/A   Partly Cloudy
8:53 PM 27.0 °F - 23.0 °F 85% 29.89 in 10.0 mi Calm Calm - N/A   Clear
9:53 PM 26.1 °F 21.9 °F 23.0 °F 88% 29.91 in 10.0 mi East 3.5 mph - N/A   Clear
10:53 PM 21.0 °F - 18.0 °F 88% 29.92 in 10.0 mi Calm Calm - N/A   Clear
11:53 PM 21.0 °F 14.6 °F 19.0 °F 92% 29.94 in 8.0 mi ESE 4.6 mph - N/A   Clear